Regional Weather Roundup
Issued by NWS New Orleans/Baton Rouge, LA

Home | Current Version | Previous Version | Graphics & Text | Print | Product List | Glossary On
Versions: 1 2 3 4 5 6 7 8 9 10 11 12 13 14 15 16 17 18 19 20 21 22 23 24 25 26 27 28 29 30 31 32 33 34 35 36 37 38 39 40 41 42 43 44 45 46 47 48 49 50
492
ASUS44 KLIX 311705
RWRLIX
NEW ORLEANS REGIONAL WEATHER ROUNDUP
NATIONAL WEATHER SERVICE NEW ORLEANS LA
1200 PM CDT SUN AUG 31 2014

NOTE: "FAIR" INDICATES FEW OR NO CLOUDS BELOW 12,000 FEET WITH NO
      SIGNIFICANT WEATHER AND/OR OBSTRUCTIONS TO VISIBILITY.
      SKY/WX - SKY CONDITION AND SIGNIFICANT WEATHER.
      TMP - AIR TEMPERATURE.     DP    - DEWPOINT TEMPERATURE.
      RH  - RELATIVE HUMIDITY.   PRES  - PRESSURE.
      HI  - HEAT INDEX.          WCI   - WIND CHILL INDEX.

*  THESE STATIONS ARE NOT NWS OR FAA STATIONS AND ARE NOT UNDER
   NWS QUALITY CONTROL.

LAZ038-040-048-061>063-065>067-069-311800-
SOUTHEAST LOUISIANA

CITY           SKY/WX    TMP DP  RH WIND       PRES   REMARKS
N.O. AUDUBON     N/A     92  76  59 MISG        N/A  HX 104
N.O. INTL ARPT MOSUNNY   90  75  61 S9        30.09F HX 100
N.O. LAKEFRONT SUNNY     89  73  59 SE7       30.10S HX  97
N.O. DOWNTOWN*   N/A     90  72  55 S7        30.09F HX  96
SLIDELL        MOSUNNY   89  74  60 S6        30.09F HX  98
BATON ROUGE    PTSUNNY   87  75  67 S6        30.08F HX  96
BOOTHVILLE     MOSUNNY   88  75  65 SE8       30.10F HX  97
BELLE CHASSE   PTSUNNY   90  73  57 SE10      30.08F HX  98
BOGALUSA*        N/A     91  73  55 S9        30.11F HX  98
GALLIANO*      NOT AVBL
NEW ROADS*       N/A     85  78  78 SE6       30.08S HX  97
GONZALES*      PTSUNNY   88  78  72 SE6       30.08S HX 101
HAMMOND*       MOSUNNY   91  72  52 SE9       30.11S HX  98
HOUMA*         NOT AVBL
PORT FOURCHON* NOT AVBL

$$

MSZ070-080>082-311800-
SOUTHERN MISSISSIPPI

CITY           SKY/WX    TMP DP  RH WIND       PRES   REMARKS
MCCOMB         CLOUDY    85  75  72 SW8       30.11F
GULFPORT       MOSUNNY   88  76  67 SE12      30.10F HX  99
BILOXI         SUNNY     89  77  67 S8        30.11S HX 102
PASCAGOULA     SUNNY     90  73  57 S7        30.11S HX  98

$$

COASTAL OBSERVATIONS
LAKE AND NEARSHORE STATIONS

STATION/POSITION TIME  TEMP    WIND        PRES    WAVE
                       AIR SEA DIR/SP/G            HT/PER
                 (UTC) (F)     (DEG/KT/KT) (MB)    (FT/S)
PASCAGOULA       1700   90     160/  5/ 10 1019.4
WAVELAND YACHT   1700   84     160/  7/  8 1019.0
GRAND ISLE       1700   88 83  110/  5/  7 1019.6
SOUTHWEST PASS   1700   89 90  130/  9/ 14 1019.6
NEW CANAL        1700   90 81  170/  5/ 10 1019.4
SHELL BEACH      1700   87 80  150/  7/ 10 1019.2

OFFSHORE STATIONS

STATION/POSITION TIME  TEMP    WIND        PRES    WAVE
                       AIR SEA DIR/SP/G            HT/PER
                 (UTC) (F)     (DEG/KT/KT) (MB)    (FT/S)
64 S DAUPHIN ISL 1700   85 86  120/ 12/ 12 1019.8

$$




USA.gov is the U.S. government's official web portal to all federal, state and local government web resources and services.